Regional Weather Roundup
Issued by NWS

Home | Current Version | Previous Version | Graphics & Text | Print | Product List | Glossary Off
Versions: 1 2 3 4 5 6 7 8 9 10 11 12 13 14 15 16 17 18 19 20 21 22 23 24 25 26 27 28 29 30 31 32 33 34 35 36 37 38 39 40 41 42 43 44 45 46 47 48 49 50

000
ASUS43 KLSX 081857
RWRMO

WEATHER SUMMARY FOR MISSOURI
NATIONAL WEATHER SERVICE SPRINGFIELD MO
100 PM CST MON FEB 08 2016

NOTE: "FAIR" INDICATES FEW OR NO CLOUDS BELOW 12,000 FEET WITH NO
       SIGNIFICANT WEATHER AND/OR OBSTRUCTIONS TO VISIBILITY.
       CURRENT SKY AND/OR WEATHER CONDITIONS ARE NOT AVAILABLE FOR
       CHILLICOTHE AND FARMINGTON.

MOZ001>031-035>038-043-044-053-054-082000-
...NORTHERN AND WESTERN MISSOURI...

CITY           SKY/WX    TMP DP  RH WIND       PRES   REMARKS
KANSAS CTY INT FLURRIES  31  18  58 NW22G31   30.05S WCI  18
LEE`S SUMMIT   CLOUDY    31  19  61 N25G35    30.05F WCI  17
ST JOSEPH      CLOUDY    30  16  56 NW24G43   30.08S WCI  16
CHILLICOTHE      N/A     26  13  57 NW16G33   30.01F WCI  14

$$
MOZ066>068-077>081-088>096-101>105-082000-
...SOUTHWEST MISSOURI...

CITY           SKY/WX    TMP DP  RH WIND       PRES   REMARKS
SPRINGFIELD    CLOUDY    33  16  49 NW24G35   30.00F WCI  20
JOPLIN         CLOUDY    35  22  58 NW23G38   30.10F WCI  23

$$
MOZ032>034-039>042-045>050-055>058-069>072-082000-
...CENTRAL MISSOURI...

CITY           SKY/WX    TMP DP  RH WIND       PRES   REMARKS
COLUMBIA       NOT AVBL
JEFFERSON CITY CLOUDY    28  14  55 NW25G37   29.97S WCI  13
ROLLA          CLOUDY    26  16  65 W16G31    29.90S WCI  14
SEDALIA        CLOUDY    30  18  60 NW23G39   30.01S WCI  17

$$
MOZ051-052-059>065-082000-
...EAST CENTRAL MISSOURI...

CITY           SKY/WX    TMP DP  RH WIND       PRES   REMARKS
ST LOUIS INTL  FLURRIES  28  12  51 W26G32    29.87F WCI  13

$$
MOZ072>076-082>087-097>100-106>115-082000-
...SOUTH CENTRAL AND SOUTHEAST MISSOURI...

CITY           SKY/WX    TMP DP  RH WIND       PRES   REMARKS
CAPE GIRARDEAU CLOUDY    36  16  44 NW24G30   29.87S WCI  24
POPLAR BLUFF   CLOUDY    38  17  42 NW26G33   29.89F WCI  26
WEST PLAINS    CLOUDY    34  15  46 NW16G32   29.94R WCI  24

$$


USA.gov is the U.S. government's official web portal to all federal, state and local government web resources and services.